Date String (YYYY-MM-DD hh:mm:ss) UTC,Instrument flags,Ambient pressure (hPa),Sample flow (lpm),Bypass flow (lpm),Sample temperature (°C),Ambient temperature (°C),ASC tube jacket temperature (°C),LED temperature (°C),Box temperature (°C),Sample RH (%),Span deviation,Mass concentration (μg/m³),Mass concentration (μg/m³),Mass concentration (μg/m³)
DateTimeUTC,F1_M11,P_M11,Q1_M11,Q2_M11,T1_M11,T2_M11,T3_M11,T4_M11,T5_M11,U1_M11,ZSPAN_M11,X0_M11,X2_M11,X1_M11
2021-11-11 04:00:00,,0825.4,4.99,0.00,23.7,22.6,00.0,32.9,25.5,11.4,0000.0,0005.84,0003.08,0002.33
2021-11-11 04:01:00,,0825.4,5.01,0.00,23.7,22.5,00.0,32.9,25.3,11.4,0000.0,0006.04,0003.05,0002.32
2021-11-11 04:02:00,,0825.4,5.00,0.00,23.7,22.5,00.0,32.9,25.2,11.4,0000.0,0005.97,0003.04,0002.31
2021-11-11 04:03:00,,0825.4,5.00,0.00,23.7,22.5,00.0,32.9,25.2,11.4,0000.0,0005.07,0003.02,0002.29
2021-11-11 04:04:00,,0825.4,5.00,0.00,23.7,22.4,00.0,32.8,25.2,11.4,0000.0,0004.91,0002.97,0002.27
2021-11-11 04:05:00,,0825.4,5.00,0.00,23.7,22.3,00.0,32.8,25.2,11.4,0000.0,0004.79,0002.92,0002.25
2021-11-11 04:06:00,,0825.4,5.01,0.00,23.7,22.3,00.0,32.8,25.3,11.5,0000.0,0004.80,0002.91,0002.24
2021-11-11 04:07:00,,0825.4,4.99,0.00,23.7,22.4,00.0,32.8,25.3,11.5,0000.0,0004.86,0002.93,0002.22
2021-11-11 04:08:00,,0825.5,5.01,0.00,23.7,22.3,00.0,32.8,25.3,11.6,0000.0,0004.82,0002.91,0002.20
2021-11-11 04:09:00,,0825.5,5.00,0.00,23.6,22.3,00.0,32.8,25.2,11.6,0000.0,0004.74,0002.91,0002.22
2021-11-11 04:10:00,,0825.5,4.99,0.00,23.6,22.3,00.0,32.8,25.2,11.6,0000.0,0004.83,0002.95,0002.23
2021-11-11 04:11:00,,0825.5,5.00,0.00,23.6,22.4,00.0,32.8,25.2,11.6,0000.0,0004.64,0002.93,0002.24
2021-11-11 04:12:00,,0825.6,5.01,0.00,23.6,22.4,00.0,32.8,25.2,11.4,0000.0,0004.37,0002.93,0002.23
2021-11-11 04:13:00,,0825.6,4.98,0.00,23.6,22.4,00.0,32.8,25.2,11.4,0000.0,0004.37,0002.92,0002.23
2021-11-11 04:14:00,,0825.6,5.01,0.00,23.6,22.4,00.0,32.8,25.2,11.5,0000.0,0004.24,0002.91,0002.24
2021-11-11 04:15:00,,0825.6,5.00,0.00,23.6,22.4,00.0,32.8,25.2,11.5,0000.0,0004.27,0002.93,0002.26
2021-11-11 04:16:00,,0825.6,5.00,0.00,23.6,22.4,00.0,32.7,25.2,11.5,0000.0,0004.04,0002.87,0002.26
2021-11-11 04:17:00,,0825.5,5.00,0.00,23.6,22.4,00.0,32.8,25.2,11.6,0000.0,0004.04,0002.87,0002.26
2021-11-11 04:18:00,,0825.6,5.00,0.00,23.6,22.5,00.0,32.7,25.3,11.6,0000.0,0003.97,0002.85,0002.27
2021-11-11 04:19:00,,0825.5,5.00,0.00,23.6,22.4,00.0,32.7,25.2,11.6,0000.0,0004.05,0002.85,0002.27
2021-11-11 04:20:00,,0825.5,5.01,0.00,23.6,22.4,00.0,32.7,25.2,11.6,0000.0,0003.99,0002.81,0002.25
2021-11-11 04:21:00,,0825.5,4.99,0.00,23.6,22.4,00.0,32.7,25.2,11.6,0000.0,0003.93,0002.79,0002.24
2021-11-11 04:22:00,,0825.4,5.01,0.00,23.6,22.3,00.0,32.7,25.1,11.7,0000.0,0003.93,0002.81,0002.24
2021-11-11 04:23:00,,0825.5,5.00,0.00,23.6,22.3,00.0,32.7,25.1,11.8,0000.0,0003.88,0002.80,0002.23
2021-11-11 04:24:00,,0825.5,4.99,0.00,23.6,22.3,00.0,32.7,25.1,11.8,0000.0,0003.94,0002.79,0002.20
2021-11-11 04:25:00,,0825.7,5.00,0.00,23.5,22.3,00.0,32.7,25.1,11.8,0000.0,0003.91,0002.76,0002.19
2021-11-11 04:26:00,,0825.7,5.01,0.00,23.5,22.3,00.0,32.7,25.0,11.9,0000.0,0003.83,0002.71,0002.17
2021-11-11 04:27:00,,0825.7,4.99,0.00,23.5,22.3,00.0,32.7,25.1,11.9,0000.0,0003.95,0002.72,0002.15
2021-11-11 04:28:00,,0825.7,5.00,0.00,23.5,22.3,00.0,32.7,25.1,11.9,0000.0,0004.08,0002.72,0002.15
2021-11-11 04:29:00,,0825.7,5.00,0.00,23.5,22.3,00.0,32.7,25.1,11.9,0000.0,0004.10,0002.70,0002.13
2021-11-11 04:30:00,,0825.7,5.01,0.00,23.5,22.3,00.0,32.7,25.1,11.9,0000.0,0004.10,0002.73,0002.12
2021-11-11 04:31:00,,0825.7,4.99,0.00,23.5,22.3,00.0,32.7,25.2,11.9,0000.0,0004.05,0002.71,0002.11
2021-11-11 04:32:00,,0825.7,5.01,0.00,23.5,22.4,00.0,32.7,25.2,11.9,0000.0,0003.98,0002.66,0002.07
2021-11-11 04:33:00,,0825.7,5.00,0.00,23.5,22.4,00.0,32.7,25.2,11.9,0000.0,0003.93,0002.62,0002.03
2021-11-11 04:34:00,,0825.7,5.00,0.00,23.5,22.4,00.0,32.7,25.1,11.9,0000.0,0003.93,0002.59,0002.00
2021-11-11 04:35:00,,0825.7,5.00,0.00,23.5,22.4,00.0,32.7,25.1,11.9,0000.0,0003.73,0002.51,0001.98
2021-11-11 04:36:00,,0825.7,5.00,0.00,23.5,22.4,00.0,32.6,25.2,12.0,0000.0,0003.75,0002.48,0001.95
2021-11-11 04:37:00,,0825.9,4.99,0.00,23.5,22.4,00.0,32.6,25.2,12.0,0000.0,0003.71,0002.46,0001.94
2021-11-11 04:38:00,,0825.9,5.00,0.00,23.5,22.4,00.0,32.6,25.2,12.0,0000.0,0003.56,0002.42,0001.91
2021-11-11 04:39:00,,0825.7,5.00,0.00,23.6,22.5,00.0,32.6,25.3,12.0,0000.0,0003.39,0002.37,0001.88
2021-11-11 04:40:00,,0825.9,4.99,0.00,23.6,22.5,00.0,32.6,25.3,12.0,0000.0,0003.34,0002.36,0001.86
2021-11-11 04:41:00,,0825.9,5.00,0.00,23.6,22.5,00.0,32.6,25.3,11.5,0000.0,0003.48,0002.36,0001.86
2021-11-11 04:42:00,,0825.9,5.01,0.00,23.6,22.5,00.0,32.7,25.3,11.8,0000.0,0003.44,0002.33,0001.86
2021-11-11 04:43:00,,0826.0,5.00,0.00,23.6,22.5,00.0,32.7,25.3,11.9,0000.0,0003.43,0002.33,0001.85
2021-11-11 04:44:00,,0826.0,4.99,0.00,23.6,22.5,00.0,32.7,25.3,12.0,0000.0,0003.52,0002.31,0001.83
2021-11-11 04:45:00,,0826.0,5.02,0.00,23.6,22.6,00.0,32.7,25.3,12.0,0000.0,0003.54,0002.31,0001.82
2021-11-11 04:46:00,,0826.0,5.01,0.00,23.6,22.6,00.0,32.7,25.4,12.0,0000.0,0003.57,0002.33,0001.82
2021-11-11 04:47:00,,0826.0,5.00,0.00,23.7,22.7,00.0,32.7,25.5,12.1,0000.0,0003.43,0002.29,0001.82
2021-11-11 04:48:00,,0826.0,5.00,0.00,23.7,22.7,00.0,32.7,25.5,12.0,0000.0,0003.35,0002.25,0001.79
2021-11-11 04:49:00,,0826.0,5.00,0.00,23.7,22.7,00.0,32.7,25.5,12.0,0000.0,0003.64,0002.28,0001.78
2021-11-11 04:50:00,,0826.1,5.00,0.00,23.7,22.7,00.0,32.7,25.4,12.1,0000.0,0003.73,0002.29,0001.78
2021-11-11 04:51:00,,0826.2,5.00,0.00,23.7,22.7,00.0,32.7,25.4,12.0,0000.0,0003.73,0002.28,0001.76
2021-11-11 04:52:00,,0826.2,5.00,0.00,23.7,22.7,00.0,32.7,25.4,11.9,0000.0,0003.63,0002.26,0001.74
2021-11-11 04:53:00,,0826.2,4.98,0.00,23.7,22.7,00.0,32.7,25.4,11.9,0000.0,0003.62,0002.24,0001.71
2021-11-11 04:54:00,,0826.2,5.01,0.00,23.7,22.6,00.0,32.7,25.4,11.9,0000.0,0003.79,0002.27,0001.71
2021-11-11 04:55:00,,0826.1,4.99,0.00,23.7,22.6,00.0,32.7,25.4,12.0,0000.0,0003.79,0002.28,0001.71
2021-11-11 04:56:00,,0826.2,5.00,0.00,23.7,22.6,00.0,32.7,25.4,11.9,0000.0,0003.79,0002.30,0001.72
2021-11-11 04:57:00,,0826.1,5.01,0.00,23.7,22.6,00.0,32.7,25.4,11.4,0000.0,0003.90,0002.36,0001.75
2021-11-11 04:58:00,,0826.0,4.98,0.00,23.7,22.7,00.0,32.7,25.5,11.2,0000.0,0004.55,0002.43,0001.78
2021-11-11 04:59:00,,0826.1,5.00,0.00,23.7,22.8,00.0,32.7,25.5,11.1,0000.0,0005.13,0002.52,0001.83
